sat.trackr.live / text

‹ back to catalog

STARLINK-5259

NORAD 54209 · 2022-141BE

PAYLOAD ACTIVE UNKNOWN

§ Identity

Operator
Country
US
Launch date
2022-10-28
Launch site
AFWTR
Launch vehicle
Mass (kg)
RCS (m²)

Purposes: comms

External: N2YO · Heavens-Above · Gunter

§ Orbital elements

Epoch: 2026-05-24T20:55:29.091936Z

Period
95.44 min
Inclination
53.2145°
Eccentricity
0.0001192
Mean motion
15.08852036 rev/d
Perigee alt
538.9 km
Apogee alt
540.5 km
Semi-major
6,917.8 km
B*
1.2208e-4
RAAN
1.7857°
Arg perigee
115.4153°
Mean anomaly
244.6962°
Rev number
19,764

§ Raw data

STARLINK-52591 54209U 22141BE  26144.87186449  .00001656  00000+0  12208-3 0  99972 54209  53.2145   1.7857 0001192 115.4153 244.6962 15.08852036197641

JSON: /api/v1/satellites/54209 · /tle

For live sub-satellite position, see the globe view (requires WebGL).

§ Visibility from observer

Set your observer location to see the next 7 days of passes ≥ 10°. The values pass through the URL so the page stays shareable.

No JS? Fill the form by hand. The geolocation button needs JavaScript.